ACA588 PHOG-CYYC

Flight info

Callsign ACA588
Flight time 6h 15m
Altitude 33000
Route APACK R463 AUNTI/N0462F350 A332 HEKAB/N0453F370 A332 HEMLO C1419 ONP DCT LOCAN DCT MENBO Q983 NORET IGVEP7
Aircraft B38M/M-SDE1FGHILORVWXY/HB1

Departure

Time 2026-04-23 12:28
Airport Kahului International Airport (PHOG)

Arrival

Time 2026-04-23 18:43
Airport Calgary International Airport (CYYC)
Time Latitude Longitude Altitude Speed Heading
2026-04-23 12:00 20.89106 -156.43813 47 ft 0 kts 305°
2026-04-23 12:20 20.89105 -156.43812 56 ft 2 kts 305°
2026-04-23 12:20 20.89091 -156.43790 46 ft 4 kts 305°
2026-04-23 12:21 20.89076 -156.43767 45 ft 4 kts 302°
2026-04-23 12:21 20.89062 -156.43742 43 ft 4 kts 295°
2026-04-23 12:21 20.89053 -156.43715 42 ft 4 kts 278°
2026-04-23 12:21 20.89056 -156.43690 45 ft 4 kts 228°
2026-04-23 12:22 20.89060 -156.43686 46 ft 3 kts 215°
2026-04-23 12:26 20.89059 -156.43687 47 ft 2 kts 214°
2026-04-23 12:26 20.89012 -156.43710 47 ft 11 kts 181°
2026-04-23 12:26 20.88994 -156.43705 47 ft 3 kts 155°
2026-04-23 12:26 20.88947 -156.43655 44 ft 14 kts 127°
2026-04-23 12:27 20.88971 -156.43592 47 ft 0 kts 35°
2026-04-23 12:27 20.88973 -156.43591 45 ft 6 kts 35°
2026-04-23 12:27 20.89212 -156.43414 48 ft 78 kts 35°
2026-04-23 12:27 20.89847 -156.42939 47 ft 142 kts 35°
2026-04-23 12:28 20.90791 -156.42241 175 ft 182 kts 35°
2026-04-23 12:28 20.91893 -156.41460 773 ft 194 kts 32°
2026-04-23 12:28 20.93023 -156.40683 1683 ft 192 kts 35°
2026-04-23 12:28 20.94124 -156.39812 2227 ft 205 kts 50°
2026-04-23 12:29 20.94711 -156.38374 2641 ft 224 kts 85°
2026-04-23 12:29 20.94458 -156.36663 3132 ft 244 kts 112°
2026-04-23 12:29 20.93904 -156.34951 4015 ft 247 kts 102°
2026-04-23 12:29 20.93510 -156.33115 4725 ft 260 kts 102°
2026-04-23 12:30 20.93081 -156.31199 5505 ft 266 kts 103°
2026-04-23 12:30 20.92637 -156.29267 6432 ft 270 kts 103°
2026-04-23 12:30 20.92488 -156.27249 7092 ft 277 kts 80°
2026-04-23 12:30 20.92867 -156.25226 7943 ft 279 kts 78°
2026-04-23 12:31 20.93236 -156.23158 8661 ft 286 kts 78°
2026-04-23 12:31 20.93620 -156.21060 9465 ft 289 kts 77°
2026-04-23 12:31 20.94016 -156.18927 10164 ft 295 kts 77°
2026-04-23 12:31 20.94428 -156.16732 10666 ft 308 kts 77°
2026-04-23 12:32 20.94862 -156.14425 11008 ft 325 kts 77°
2026-04-23 12:32 20.95320 -156.11989 11308 ft 343 kts 77°
2026-04-23 12:32 20.95800 -156.09438 11653 ft 357 kts 77°
2026-04-23 12:32 20.96324 -156.06825 12242 ft 359 kts 71°
2026-04-23 12:33 20.97403 -156.04436 12923 ft 358 kts 52°
2026-04-23 12:33 20.99175 -156.02583 13511 ft 358 kts 32°
2026-04-23 12:33 21.01429 -156.01475 14092 ft 359 kts 13°
2026-04-23 12:33 21.03910 -156.01191 14610 ft 361 kts 356°
2026-04-23 12:34 21.06428 -156.01359 15108 ft 365 kts 355°
2026-04-23 12:34 21.08972 -156.01564 15634 ft 368 kts 355°
2026-04-23 12:34 21.11536 -156.01794 16154 ft 371 kts 354°
2026-04-23 12:34 21.14124 -156.02041 16658 ft 375 kts 354°
2026-04-23 12:35 21.16733 -156.02299 17153 ft 378 kts 354°
2026-04-23 12:35 21.19364 -156.02562 17655 ft 381 kts 354°
2026-04-23 12:35 21.22018 -156.02830 18142 ft 385 kts 354°
2026-04-23 12:35 21.24693 -156.03100 18588 ft 388 kts 354°
2026-04-23 12:36 21.27389 -156.03373 19016 ft 390 kts 354°
2026-04-23 12:36 21.30099 -156.03647 19454 ft 392 kts 354°
2026-04-23 12:36 21.32825 -156.03923 19872 ft 395 kts 354°
2026-04-23 12:36 21.35570 -156.04200 20294 ft 398 kts 354°
2026-04-23 12:37 21.38332 -156.04480 20710 ft 400 kts 354°
2026-04-23 12:37 21.41113 -156.04762 21107 ft 403 kts 354°
2026-04-23 12:37 21.43910 -156.05046 21516 ft 405 kts 354°
2026-04-23 12:37 21.46727 -156.05331 21921 ft 407 kts 354°
2026-04-23 12:38 21.49556 -156.05618 22314 ft 410 kts 354°
2026-04-23 12:38 21.51441 -156.05810 22562 ft 412 kts 354°
2026-04-23 12:38 21.54305 -156.06100 22950 ft 414 kts 354°
2026-04-23 12:38 21.57187 -156.06393 23319 ft 417 kts 354°
2026-04-23 12:39 21.60087 -156.06688 23683 ft 420 kts 354°
2026-04-23 12:39 21.63005 -156.06985 23998 ft 422 kts 354°
2026-04-23 12:39 21.65932 -156.07282 24310 ft 424 kts 353°
2026-04-23 12:39 21.68876 -156.07582 24617 ft 426 kts 353°
2026-04-23 12:40 21.71837 -156.07883 24919 ft 429 kts 353°
2026-04-23 12:40 21.74814 -156.08186 25223 ft 431 kts 353°
2026-04-23 12:40 21.77802 -156.08491 25526 ft 433 kts 353°
2026-04-23 12:40 21.80810 -156.08797 25822 ft 435 kts 353°
2026-04-23 12:41 21.83828 -156.09105 26120 ft 437 kts 353°
2026-04-23 12:41 21.86865 -156.09414 26412 ft 439 kts 353°
2026-04-23 12:41 21.89915 -156.09725 26694 ft 441 kts 352°
2026-04-23 12:41 21.92980 -156.10038 26970 ft 444 kts 352°
2026-04-23 12:42 21.96064 -156.10353 27237 ft 446 kts 352°
2026-04-23 12:42 21.99157 -156.10669 27508 ft 448 kts 352°
2026-04-23 12:42 22.02265 -156.10987 27780 ft 450 kts 352°
2026-04-23 12:42 22.05389 -156.11306 28047 ft 452 kts 352°
2026-04-23 12:43 22.08566 -156.11631 28310 ft 454 kts 352°
2026-04-23 12:43 22.11673 -156.11949 28563 ft 456 kts 352°
2026-04-23 12:43 22.14881 -156.12277 28822 ft 458 kts 352°
2026-04-23 12:43 22.18018 -156.12598 29057 ft 460 kts 352°
2026-04-23 12:44 22.21253 -156.12930 29301 ft 462 kts 352°
2026-04-23 12:44 22.24456 -156.13258 29559 ft 463 kts 352°
2026-04-23 12:44 22.27672 -156.13589 29789 ft 465 kts 352°
2026-04-23 12:44 22.30907 -156.13920 30018 ft 467 kts 352°
2026-04-23 12:45 22.34149 -156.14253 30234 ft 469 kts 352°
2026-04-23 12:45 22.37366 -156.14583 30442 ft 470 kts 351°
2026-04-23 12:45 22.40625 -156.14918 30688 ft 470 kts 351°
2026-04-23 12:45 22.43878 -156.15252 31010 ft 468 kts 351°
2026-04-23 12:46 22.47158 -156.15590 31363 ft 466 kts 351°
2026-04-23 12:46 22.50336 -156.15917 31695 ft 464 kts 351°
2026-04-23 12:46 22.53543 -156.16247 32033 ft 462 kts 351°
2026-04-23 12:46 22.56733 -156.16576 32372 ft 460 kts 351°
2026-04-23 12:47 22.59913 -156.16903 32714 ft 458 kts 351°
2026-04-23 12:47 22.63081 -156.17230 33042 ft 456 kts 351°
2026-04-23 12:47 22.69377 -156.17879 33105 ft 453 kts 351°
2026-04-23 12:48 22.75646 -156.18527 33101 ft 452 kts 351°
2026-04-23 12:48 22.81909 -156.19174 33101 ft 452 kts 351°
2026-04-23 12:49 22.88169 -156.19822 33100 ft 452 kts 351°
2026-04-23 12:49 22.94434 -156.20470 33099 ft 452 kts 351°
2026-04-23 12:50 23.00691 -156.21119 33096 ft 452 kts 351°
2026-04-23 12:50 23.06952 -156.21768 33111 ft 453 kts 351°
2026-04-23 12:51 23.10088 -156.22094 33342 ft 452 kts 351°
2026-04-23 12:51 23.13215 -156.22419 33644 ft 451 kts 351°
2026-04-23 12:51 23.16336 -156.22743 33930 ft 450 kts 351°
2026-04-23 12:51 23.19444 -156.23066 34206 ft 449 kts 351°
2026-04-23 12:52 23.22548 -156.23389 34449 ft 447 kts 351°
2026-04-23 12:52 23.25645 -156.23712 34690 ft 446 kts 350°
2026-04-23 12:52 23.28734 -156.24033 34923 ft 445 kts 350°
2026-04-23 12:52 23.31811 -156.24353 35086 ft 444 kts 350°
2026-04-23 12:53 23.37952 -156.24993 35109 ft 442 kts 350°
2026-04-23 12:53 23.44082 -156.25633 35106 ft 442 kts 350°
2026-04-23 12:54 23.50210 -156.26273 35104 ft 442 kts 350°
2026-04-23 12:54 23.56336 -156.26913 35106 ft 442 kts 350°
2026-04-23 12:55 23.62460 -156.27554 35104 ft 442 kts 350°
2026-04-23 12:55 23.68582 -156.28195 35109 ft 442 kts 350°
2026-04-23 12:56 23.74701 -156.28836 35109 ft 442 kts 350°
2026-04-23 12:56 23.80821 -156.29478 35104 ft 441 kts 350°
2026-04-23 12:57 23.86935 -156.30120 35105 ft 441 kts 350°
2026-04-23 12:57 23.93057 -156.30763 35106 ft 441 kts 349°
2026-04-23 12:58 23.99191 -156.31245 35094 ft 446 kts 360°
2026-04-23 12:58 24.02260 -156.30585 35105 ft 456 kts 15°
2026-04-23 12:58 24.05133 -156.29033 35108 ft 468 kts 30°
2026-04-23 12:59 24.07611 -156.26673 35107 ft 479 kts 45°
2026-04-23 12:59 24.09623 -156.23728 35114 ft 485 kts 49°
2026-04-23 12:59 24.13572 -156.17728 35116 ft 486 kts 50°
2026-04-23 13:00 24.17487 -156.11681 35111 ft 487 kts 50°
2026-04-23 13:00 24.21396 -156.05624 35115 ft 487 kts 50°
2026-04-23 13:01 24.25305 -155.99559 35112 ft 487 kts 50°
2026-04-23 13:01 24.29210 -155.93494 35110 ft 487 kts 50°
2026-04-23 13:02 24.33112 -155.87424 35111 ft 487 kts 50°
2026-04-23 13:02 24.37013 -155.81350 35108 ft 487 kts 50°
2026-04-23 13:03 24.40911 -155.75272 35112 ft 487 kts 50°
2026-04-23 13:03 24.44805 -155.69192 35117 ft 487 kts 50°
2026-04-23 13:04 24.48698 -155.63108 35108 ft 487 kts 50°
2026-04-23 13:04 24.52587 -155.57021 35114 ft 487 kts 50°
2026-04-23 13:05 24.56474 -155.50930 35112 ft 487 kts 50°
2026-04-23 13:05 24.60358 -155.44836 35110 ft 487 kts 50°
2026-04-23 13:06 24.66180 -155.35688 35111 ft 487 kts 50°
2026-04-23 13:07 24.70061 -155.29582 35111 ft 487 kts 50°
2026-04-23 13:07 24.74353 -155.23942 35125 ft 477 kts 38°
2026-04-23 13:08 24.79092 -155.18805 35118 ft 479 kts 39°
2026-04-23 13:08 24.83847 -155.13661 35112 ft 479 kts 39°
2026-04-23 13:09 24.88597 -155.08520 35108 ft 479 kts 39°
2026-04-23 13:09 24.93345 -155.03376 35107 ft 479 kts 39°
2026-04-23 13:10 24.98092 -154.98227 35111 ft 479 kts 39°
2026-04-23 13:10 25.02839 -154.93072 35107 ft 479 kts 39°
2026-04-23 13:11 25.07585 -154.87913 35108 ft 479 kts 39°
2026-04-23 13:11 25.12328 -154.82750 35106 ft 479 kts 39°
2026-04-23 13:12 25.17069 -154.77585 35108 ft 479 kts 39°
2026-04-23 13:12 25.21815 -154.72407 35108 ft 479 kts 39°
2026-04-23 13:13 25.26551 -154.67235 35110 ft 479 kts 39°
2026-04-23 13:13 25.31285 -154.62058 35110 ft 479 kts 39°
2026-04-23 13:14 25.36016 -154.56880 35111 ft 479 kts 39°
2026-04-23 13:14 25.40746 -154.51696 35105 ft 479 kts 39°
2026-04-23 13:15 25.45474 -154.46507 35103 ft 479 kts 39°
2026-04-23 13:15 25.49402 -154.42192 35104 ft 479 kts 39°
2026-04-23 13:16 25.54927 -154.36117 35110 ft 479 kts 39°
2026-04-23 13:16 25.58852 -154.31795 35109 ft 479 kts 39°
2026-04-23 13:17 25.64344 -154.25741 35104 ft 479 kts 39°
2026-04-23 13:17 25.69062 -154.20533 35110 ft 479 kts 38°
2026-04-23 13:18 25.73018 -154.16163 35108 ft 479 kts 39°
2026-04-23 13:18 25.77740 -154.10940 35108 ft 479 kts 39°
2026-04-23 13:19 25.82459 -154.05713 35108 ft 479 kts 38°
2026-04-23 13:19 25.87178 -154.00480 35109 ft 479 kts 39°
2026-04-23 13:20 25.91897 -153.95243 35108 ft 480 kts 38°
2026-04-23 13:20 25.96615 -153.89998 35108 ft 480 kts 39°
2026-04-23 13:21 26.01330 -153.84752 35110 ft 480 kts 39°
2026-04-23 13:21 26.06049 -153.79494 35109 ft 480 kts 39°
2026-04-23 13:22 26.10760 -153.74238 35115 ft 480 kts 39°
2026-04-23 13:22 26.15474 -153.68974 35116 ft 480 kts 39°
2026-04-23 13:23 26.20182 -153.63709 35113 ft 480 kts 39°
2026-04-23 13:23 26.24891 -153.58438 35111 ft 480 kts 39°
2026-04-23 13:24 26.29599 -153.53160 35112 ft 480 kts 39°
2026-04-23 13:24 26.34308 -153.47876 35110 ft 480 kts 39°
2026-04-23 13:25 26.39016 -153.42585 35115 ft 480 kts 39°
2026-04-23 13:25 26.43691 -153.37326 35114 ft 480 kts 39°
2026-04-23 13:26 26.48398 -153.32024 35121 ft 481 kts 39°
2026-04-23 13:26 26.53104 -153.26716 35122 ft 481 kts 39°
2026-04-23 13:27 26.57808 -153.21405 35117 ft 481 kts 39°
2026-04-23 13:27 26.62509 -153.16089 35116 ft 481 kts 39°
2026-04-23 13:28 26.67215 -153.10762 35119 ft 481 kts 39°
2026-04-23 13:28 26.71919 -153.05430 35117 ft 481 kts 39°
2026-04-23 13:29 26.76623 -153.00092 35119 ft 482 kts 39°
2026-04-23 13:29 26.81326 -152.94749 35120 ft 482 kts 39°
2026-04-23 13:30 26.86031 -152.89395 35121 ft 482 kts 39°
2026-04-23 13:30 26.90731 -152.84041 35122 ft 482 kts 38°
2026-04-23 13:31 26.95436 -152.78675 35121 ft 482 kts 38°
2026-04-23 13:31 27.00134 -152.73310 35122 ft 482 kts 39°
2026-04-23 13:32 27.04829 -152.67941 35123 ft 482 kts 39°
2026-04-23 13:32 27.09521 -152.62568 35122 ft 482 kts 39°
2026-04-23 13:33 27.14207 -152.57197 35123 ft 481 kts 38°
2026-04-23 13:33 27.18889 -152.51822 35121 ft 481 kts 39°
2026-04-23 13:34 27.23566 -152.46447 35125 ft 481 kts 39°
2026-04-23 13:34 27.28237 -152.41072 35128 ft 480 kts 39°
2026-04-23 13:35 27.32902 -152.35696 35123 ft 480 kts 39°
2026-04-23 13:35 27.37560 -152.30322 35120 ft 479 kts 39°
2026-04-23 13:36 27.42209 -152.24952 35125 ft 479 kts 39°
2026-04-23 13:36 27.46853 -152.19579 35130 ft 479 kts 39°
2026-04-23 13:37 27.51494 -152.14205 35123 ft 479 kts 39°
2026-04-23 13:37 27.56133 -152.08826 35130 ft 478 kts 39°
2026-04-23 13:38 27.60770 -152.03441 35126 ft 478 kts 39°
2026-04-23 13:38 27.65400 -151.98057 35121 ft 478 kts 39°
2026-04-23 13:39 27.70029 -151.92669 35119 ft 478 kts 39°
2026-04-23 13:39 27.74654 -151.87277 35121 ft 478 kts 39°
2026-04-23 13:40 27.79279 -151.81879 35121 ft 478 kts 39°
2026-04-23 13:40 27.83899 -151.76479 35122 ft 478 kts 39°
2026-04-23 13:41 27.88520 -151.71070 35123 ft 478 kts 40°
2026-04-23 13:41 27.93139 -151.65658 35121 ft 478 kts 39°
2026-04-23 13:42 27.97754 -151.60243 35118 ft 478 kts 40°
2026-04-23 13:42 28.02371 -151.54819 35119 ft 478 kts 40°
2026-04-23 13:43 28.06983 -151.49392 35117 ft 478 kts 40°
2026-04-23 13:43 28.11593 -151.43962 35120 ft 478 kts 40°
2026-04-23 13:44 28.16199 -151.38529 35119 ft 478 kts 40°
2026-04-23 13:44 28.20801 -151.33094 35119 ft 478 kts 40°
2026-04-23 13:45 28.24653 -151.28539 35120 ft 477 kts 40°
2026-04-23 13:45 28.29992 -151.22216 35120 ft 477 kts 40°
2026-04-23 13:46 28.34613 -151.16736 35119 ft 477 kts 39°
2026-04-23 13:46 28.39201 -151.11288 35119 ft 477 kts 40°
2026-04-23 13:47 28.43789 -151.05832 35120 ft 477 kts 40°
2026-04-23 13:47 28.48374 -151.00373 35119 ft 478 kts 40°
2026-04-23 13:48 28.52961 -150.94905 35120 ft 478 kts 40°
2026-04-23 13:48 28.57544 -150.89433 35124 ft 478 kts 40°
2026-04-23 13:49 28.62128 -150.83953 35118 ft 478 kts 40°
2026-04-23 13:49 28.66705 -150.78473 35119 ft 478 kts 40°
2026-04-23 13:50 28.71280 -150.72990 35122 ft 477 kts 40°
2026-04-23 13:50 28.75855 -150.67498 35123 ft 477 kts 40°
2026-04-23 13:51 28.80423 -150.62008 35123 ft 477 kts 40°
2026-04-23 13:51 28.84992 -150.56509 35124 ft 477 kts 40°
2026-04-23 13:52 28.89557 -150.51006 35119 ft 477 kts 40°
2026-04-23 13:52 28.94121 -150.45498 35120 ft 478 kts 40°
2026-04-23 13:53 28.98681 -150.39987 35126 ft 478 kts 40°
2026-04-23 13:53 29.03247 -150.34461 35127 ft 478 kts 40°
2026-04-23 13:54 29.07808 -150.28934 35124 ft 478 kts 40°
2026-04-23 13:54 29.12365 -150.23403 35125 ft 478 kts 40°
2026-04-23 13:55 29.16153 -150.18801 35125 ft 478 kts 40°
2026-04-23 13:55 29.20707 -150.13260 35128 ft 478 kts 40°
2026-04-23 13:56 29.26006 -150.06802 35128 ft 478 kts 40°
2026-04-23 13:56 29.29825 -150.02142 35128 ft 479 kts 40°
2026-04-23 13:57 29.34384 -149.96573 35129 ft 479 kts 40°
2026-04-23 13:57 29.38942 -149.90996 35129 ft 479 kts 40°
2026-04-23 13:58 29.43500 -149.85411 35130 ft 480 kts 40°
2026-04-23 13:58 29.48065 -149.79811 35137 ft 480 kts 41°
2026-04-23 13:59 29.52593 -149.74247 35136 ft 480 kts 41°
2026-04-23 13:59 29.57153 -149.68637 35139 ft 480 kts 41°
2026-04-23 14:00 29.60973 -149.63933 35139 ft 480 kts 41°
2026-04-23 14:00 29.66297 -149.57366 35135 ft 480 kts 41°
2026-04-23 14:01 29.70853 -149.51739 35138 ft 481 kts 41°
2026-04-23 14:01 29.75407 -149.46107 35141 ft 481 kts 41°
2026-04-23 14:02 29.79961 -149.40466 35140 ft 481 kts 41°
2026-04-23 14:02 29.84512 -149.34821 35141 ft 481 kts 41°
2026-04-23 14:03 29.89060 -149.29171 35142 ft 481 kts 41°
2026-04-23 14:03 29.93607 -149.23515 35143 ft 481 kts 42°
2026-04-23 14:04 29.98149 -149.17856 35145 ft 481 kts 42°
2026-04-23 14:04 30.02690 -149.12191 35144 ft 481 kts 42°
2026-04-23 14:05 30.07218 -149.06516 35145 ft 481 kts 42°
2026-04-23 14:05 30.11756 -149.00837 35149 ft 481 kts 42°
2026-04-23 14:06 30.16291 -148.95161 35151 ft 481 kts 42°
2026-04-23 14:06 30.20825 -148.89478 35152 ft 481 kts 43°
2026-04-23 14:07 30.25356 -148.83789 35153 ft 481 kts 43°
2026-04-23 14:07 30.32148 -148.75247 35161 ft 481 kts 43°
2026-04-23 14:08 30.36667 -148.69553 35163 ft 480 kts 43°
2026-04-23 14:08 30.41182 -148.63855 35158 ft 480 kts 43°
2026-04-23 14:09 30.45692 -148.58156 35161 ft 480 kts 43°
2026-04-23 14:09 30.50198 -148.52453 35161 ft 480 kts 43°
2026-04-23 14:10 30.54702 -148.46745 35160 ft 480 kts 43°
2026-04-23 14:10 30.59204 -148.41031 35169 ft 479 kts 43°
2026-04-23 14:11 30.63701 -148.35314 35171 ft 479 kts 44°
2026-04-23 14:11 30.68195 -148.29592 35173 ft 479 kts 44°
2026-04-23 14:12 30.72683 -148.23870 35173 ft 479 kts 44°
2026-04-23 14:12 30.77167 -148.18144 35176 ft 479 kts 44°
2026-04-23 14:13 30.81646 -148.12416 35178 ft 478 kts 44°
2026-04-23 14:13 30.86118 -148.06688 35179 ft 478 kts 44°
2026-04-23 14:14 30.90589 -148.00954 35179 ft 478 kts 44°
2026-04-23 14:14 30.95053 -147.95220 35179 ft 478 kts 44°
2026-04-23 14:15 30.99515 -147.89479 35185 ft 477 kts 44°
2026-04-23 14:15 31.03972 -147.83736 35185 ft 477 kts 44°
2026-04-23 14:16 31.08422 -147.77994 35189 ft 477 kts 45°
2026-04-23 14:16 31.12864 -147.72253 35189 ft 476 kts 45°
2026-04-23 14:17 31.17302 -147.66510 35194 ft 476 kts 45°
2026-04-23 14:17 31.21704 -147.60803 35195 ft 476 kts 45°
2026-04-23 14:18 31.26130 -147.55058 35196 ft 475 kts 45°
2026-04-23 14:18 31.30548 -147.49313 35202 ft 475 kts 45°
2026-04-23 14:19 31.34960 -147.43568 35201 ft 475 kts 45°
2026-04-23 14:19 31.39371 -147.37816 35205 ft 474 kts 45°
2026-04-23 14:20 31.43770 -147.32070 35203 ft 474 kts 45°
2026-04-23 14:20 31.48166 -147.26319 35206 ft 474 kts 45°
2026-04-23 14:21 31.52554 -147.20571 35211 ft 473 kts 45°
2026-04-23 14:21 31.56940 -147.14817 35210 ft 473 kts 45°
2026-04-23 14:22 31.61318 -147.09063 35212 ft 473 kts 46°
2026-04-23 14:22 31.65689 -147.03310 35217 ft 472 kts 46°
2026-04-23 14:23 31.70057 -146.97552 35215 ft 472 kts 46°
2026-04-23 14:23 31.74417 -146.91796 35219 ft 471 kts 46°
2026-04-23 14:24 31.78768 -146.86044 35220 ft 471 kts 46°
2026-04-23 14:24 31.83114 -146.80290 35215 ft 470 kts 46°
2026-04-23 14:25 31.87458 -146.74529 35222 ft 471 kts 46°
2026-04-23 14:25 31.91800 -146.68761 35225 ft 471 kts 46°
2026-04-23 14:26 31.96139 -146.62988 35224 ft 471 kts 46°
2026-04-23 14:26 32.00476 -146.57209 35230 ft 471 kts 46°
2026-04-23 14:27 32.04809 -146.51428 35231 ft 471 kts 46°
2026-04-23 14:27 32.09144 -146.45633 35230 ft 471 kts 46°
2026-04-23 14:28 32.13482 -146.39827 35233 ft 472 kts 46°
2026-04-23 14:28 32.17821 -146.34009 35240 ft 472 kts 46°
2026-04-23 14:29 32.22159 -146.28184 35239 ft 472 kts 46°
2026-04-23 14:29 32.26494 -146.22354 35235 ft 472 kts 46°
2026-04-23 14:30 32.30826 -146.16518 35235 ft 472 kts 46°
2026-04-23 14:30 32.35159 -146.10673 35241 ft 472 kts 46°
2026-04-23 14:31 32.39490 -146.04819 35241 ft 473 kts 46°
2026-04-23 14:31 32.43823 -145.98954 35244 ft 473 kts 46°
2026-04-23 14:32 32.48155 -145.93082 35245 ft 474 kts 46°
2026-04-23 14:32 32.52490 -145.87197 35241 ft 474 kts 46°
2026-04-23 14:33 32.56828 -145.81297 35248 ft 474 kts 46°
2026-04-23 14:33 32.61163 -145.75392 35248 ft 475 kts 46°
2026-04-23 14:34 32.65500 -145.69475 35252 ft 475 kts 46°
2026-04-23 14:34 32.69842 -145.63542 35254 ft 476 kts 46°
2026-04-23 14:35 32.74179 -145.57605 35252 ft 476 kts 46°
2026-04-23 14:35 32.77787 -145.52659 35255 ft 476 kts 45°
2026-04-23 14:36 32.82123 -145.46707 35252 ft 476 kts 46°
2026-04-23 14:36 32.86457 -145.40747 35259 ft 477 kts 45°
2026-04-23 14:37 32.90795 -145.34774 35264 ft 477 kts 45°
2026-04-23 14:37 32.95125 -145.28801 35257 ft 476 kts 45°
2026-04-23 14:38 32.99446 -145.22829 35265 ft 476 kts 45°
2026-04-23 14:38 33.03765 -145.16852 35260 ft 475 kts 45°
2026-04-23 14:39 33.08076 -145.10874 35261 ft 475 kts 45°
2026-04-23 14:39 33.12378 -145.04900 35260 ft 474 kts 45°
2026-04-23 14:40 33.16672 -144.98928 35267 ft 474 kts 45°
2026-04-23 14:40 33.20954 -144.92963 35268 ft 473 kts 45°
2026-04-23 14:41 33.25227 -144.87000 35269 ft 472 kts 45°
2026-04-23 14:41 33.29493 -144.81037 35270 ft 472 kts 45°
2026-04-23 14:42 33.33755 -144.75070 35271 ft 472 kts 45°
2026-04-23 14:42 33.38013 -144.69098 35270 ft 471 kts 45°
2026-04-23 14:43 33.42265 -144.63125 35271 ft 471 kts 45°
2026-04-23 14:43 33.46511 -144.57151 35269 ft 471 kts 45°
2026-04-23 14:44 33.50746 -144.51182 35274 ft 470 kts 45°
2026-04-23 14:44 33.54981 -144.45204 35280 ft 470 kts 45°
2026-04-23 14:45 33.59212 -144.39221 35276 ft 470 kts 45°
2026-04-23 14:45 33.63430 -144.33247 35274 ft 469 kts 45°
2026-04-23 14:46 33.67643 -144.27270 35278 ft 469 kts 45°
2026-04-23 14:46 33.71847 -144.21296 35286 ft 468 kts 45°
2026-04-23 14:47 33.76047 -144.15318 35280 ft 468 kts 45°
2026-04-23 14:47 33.80241 -144.09336 35278 ft 468 kts 45°
2026-04-23 14:48 33.84435 -144.03348 35281 ft 468 kts 45°
2026-04-23 14:48 33.88623 -143.97356 35282 ft 467 kts 45°
2026-04-23 14:49 33.92804 -143.91364 35284 ft 467 kts 45°
2026-04-23 14:49 33.96979 -143.85371 35282 ft 467 kts 46°
2026-04-23 14:50 34.01148 -143.79377 35281 ft 467 kts 46°
2026-04-23 14:50 34.05312 -143.73381 35282 ft 466 kts 46°
2026-04-23 14:51 34.09473 -143.67378 35283 ft 466 kts 46°
2026-04-23 14:51 34.13627 -143.61375 35284 ft 466 kts 46°
2026-04-23 14:52 34.17774 -143.55372 35285 ft 465 kts 46°
2026-04-23 14:52 34.21917 -143.49364 35283 ft 465 kts 46°
2026-04-23 14:53 34.26056 -143.43353 35281 ft 465 kts 46°
2026-04-23 14:53 34.30192 -143.37336 35279 ft 465 kts 46°
2026-04-23 14:54 34.34324 -143.31315 35283 ft 465 kts 46°
2026-04-23 14:54 34.38448 -143.25294 35288 ft 464 kts 46°
2026-04-23 14:55 34.42567 -143.19271 35288 ft 464 kts 46°
2026-04-23 14:55 34.46678 -143.13248 35286 ft 464 kts 46°
2026-04-23 14:56 34.50783 -143.07224 35286 ft 463 kts 46°
2026-04-23 14:56 34.54887 -143.01193 35289 ft 463 kts 46°
2026-04-23 14:57 34.58986 -142.95161 35293 ft 463 kts 46°
2026-04-23 14:57 34.63078 -142.89130 35291 ft 463 kts 46°
2026-04-23 14:58 34.67166 -142.83093 35292 ft 463 kts 47°
2026-04-23 14:58 34.71250 -142.77053 35294 ft 462 kts 47°
2026-04-23 14:59 34.75331 -142.71007 35293 ft 463 kts 47°
2026-04-23 14:59 34.79410 -142.64953 35291 ft 463 kts 47°
2026-04-23 15:00 34.83487 -142.58892 35294 ft 463 kts 47°
2026-04-23 15:00 34.87565 -142.52819 35295 ft 463 kts 47°
2026-04-23 15:01 34.91638 -142.46743 35299 ft 463 kts 47°
2026-04-23 15:01 34.95707 -142.40664 35298 ft 463 kts 47°
2026-04-23 15:02 34.99768 -142.34576 35298 ft 463 kts 48°
2026-04-23 15:02 35.03815 -142.28464 35298 ft 463 kts 48°
2026-04-23 15:03 35.07877 -142.22350 35300 ft 463 kts 48°
2026-04-23 15:03 35.11931 -142.16240 35309 ft 463 kts 48°
2026-04-23 15:04 35.15981 -142.10123 35310 ft 462 kts 48°
2026-04-23 15:04 35.20026 -142.04006 35310 ft 462 kts 48°
2026-04-23 15:05 35.24064 -141.97887 35310 ft 462 kts 48°
2026-04-23 15:05 35.28097 -141.91765 35311 ft 462 kts 48°
2026-04-23 15:06 35.32125 -141.85640 35310 ft 462 kts 48°
2026-04-23 15:06 35.36145 -141.79516 35313 ft 461 kts 48°
2026-04-23 15:07 35.40161 -141.73387 35315 ft 461 kts 48°
2026-04-23 15:07 35.44172 -141.67257 35315 ft 461 kts 49°
2026-04-23 15:08 35.48175 -141.61127 35319 ft 460 kts 49°
2026-04-23 15:09 35.54174 -141.51919 35318 ft 460 kts 49°
2026-04-23 15:09 35.58166 -141.45778 35322 ft 460 kts 49°
2026-04-23 15:10 35.61481 -141.40672 35319 ft 460 kts 49°
2026-04-23 15:10 35.66135 -141.33488 35313 ft 459 kts 49°
2026-04-23 15:11 35.70111 -141.27339 35322 ft 459 kts 49°
2026-04-23 15:11 35.74084 -141.21185 35318 ft 459 kts 49°
2026-04-23 15:12 35.78029 -141.15062 35325 ft 459 kts 49°
2026-04-23 15:12 35.81995 -141.08896 35324 ft 459 kts 49°
2026-04-23 15:13 35.85955 -141.02728 35330 ft 459 kts 49°
2026-04-23 15:13 35.89912 -140.96553 35332 ft 459 kts 49°
2026-04-23 15:14 35.93226 -140.91375 35327 ft 459 kts 49°
2026-04-23 15:14 35.97177 -140.85189 35332 ft 459 kts 49°
2026-04-23 15:15 36.01127 -140.78994 35330 ft 459 kts 49°
2026-04-23 15:15 36.05075 -140.72792 35336 ft 459 kts 49°
2026-04-23 15:16 36.09020 -140.66583 35341 ft 459 kts 49°
2026-04-23 15:16 36.12961 -140.60367 35335 ft 459 kts 50°
2026-04-23 15:17 36.16904 -140.54139 35335 ft 460 kts 50°
2026-04-23 15:17 36.20845 -140.47901 35334 ft 460 kts 50°
2026-04-23 15:18 36.24788 -140.41649 35340 ft 460 kts 50°
2026-04-23 15:18 36.28729 -140.35390 35342 ft 461 kts 50°
2026-04-23 15:19 36.32670 -140.29119 35343 ft 461 kts 50°
2026-04-23 15:19 36.36609 -140.22837 35345 ft 461 kts 50°
2026-04-23 15:20 36.40550 -140.16544 35349 ft 462 kts 50°
2026-04-23 15:20 36.44489 -140.10240 35350 ft 462 kts 50°
2026-04-23 15:21 36.48426 -140.03929 35350 ft 462 kts 50°
2026-04-23 15:21 36.52365 -139.97602 35350 ft 463 kts 50°
2026-04-23 15:22 36.56301 -139.91268 35350 ft 463 kts 50°
2026-04-23 15:22 36.60237 -139.84922 35351 ft 463 kts 50°
2026-04-23 15:23 36.64173 -139.78566 35354 ft 464 kts 50°
2026-04-23 15:23 36.68110 -139.72193 35356 ft 464 kts 50°
2026-04-23 15:24 36.72046 -139.65813 35360 ft 465 kts 50°
2026-04-23 15:24 36.75983 -139.59418 35364 ft 465 kts 50°
2026-04-23 15:25 36.79917 -139.53015 35362 ft 465 kts 50°
2026-04-23 15:25 36.83848 -139.46605 35363 ft 465 kts 51°
2026-04-23 15:26 36.87778 -139.40184 35368 ft 465 kts 51°
2026-04-23 15:26 36.91705 -139.33758 35368 ft 465 kts 51°
2026-04-23 15:27 36.95629 -139.27321 35365 ft 465 kts 51°
2026-04-23 15:27 36.99552 -139.20876 35366 ft 466 kts 51°
2026-04-23 15:28 37.03475 -139.14418 35374 ft 466 kts 51°
2026-04-23 15:28 37.07394 -139.07953 35373 ft 466 kts 51°
2026-04-23 15:29 37.11306 -139.01488 35374 ft 466 kts 51°
2026-04-23 15:29 37.15213 -138.95018 35377 ft 466 kts 51°
2026-04-23 15:29 37.17173 -138.91770 35479 ft 467 kts 51°
2026-04-23 15:30 37.19129 -138.88522 35750 ft 466 kts 51°
2026-04-23 15:30 37.21082 -138.85279 36008 ft 466 kts 51°
2026-04-23 15:30 37.23032 -138.82035 36258 ft 465 kts 51°
2026-04-23 15:30 37.24978 -138.78795 36493 ft 465 kts 51°
2026-04-23 15:31 37.26921 -138.75558 36719 ft 464 kts 51°
2026-04-23 15:31 37.28863 -138.72319 36940 ft 464 kts 51°
2026-04-23 15:31 37.30804 -138.69078 37151 ft 464 kts 51°
2026-04-23 15:31 37.32740 -138.65842 37344 ft 463 kts 51°
2026-04-23 15:32 37.34674 -138.62607 37383 ft 463 kts 51°
2026-04-23 15:32 37.38540 -138.56131 37386 ft 462 kts 51°
2026-04-23 15:33 37.42399 -138.49654 37389 ft 462 kts 51°
2026-04-23 15:33 37.46252 -138.43174 37384 ft 462 kts 51°
2026-04-23 15:34 37.50105 -138.36681 37389 ft 463 kts 51°
2026-04-23 15:34 37.53952 -138.30186 37385 ft 463 kts 51°
2026-04-23 15:35 37.57799 -138.23679 37388 ft 463 kts 51°
2026-04-23 15:35 37.61642 -138.17166 37383 ft 463 kts 51°
2026-04-23 15:36 37.65483 -138.10642 37386 ft 463 kts 51°
2026-04-23 15:36 37.69320 -138.04113 37388 ft 463 kts 52°
2026-04-23 15:37 37.73156 -137.97572 37387 ft 463 kts 52°
2026-04-23 15:37 37.76343 -137.92129 37388 ft 464 kts 52°
2026-04-23 15:38 37.80823 -137.84462 37389 ft 464 kts 52°
2026-04-23 15:38 37.84652 -137.77894 37392 ft 464 kts 52°
2026-04-23 15:39 37.88480 -137.71316 37391 ft 464 kts 52°
2026-04-23 15:39 37.92303 -137.64733 37391 ft 464 kts 52°
2026-04-23 15:40 37.96126 -137.58136 37392 ft 464 kts 52°
2026-04-23 15:40 37.99948 -137.51528 37391 ft 465 kts 52°
2026-04-23 15:41 38.03770 -137.44907 37395 ft 465 kts 52°
2026-04-23 15:41 38.07592 -137.38272 37392 ft 466 kts 52°
2026-04-23 15:42 38.11416 -137.31621 37394 ft 467 kts 52°
2026-04-23 15:42 38.15241 -137.24954 37395 ft 467 kts 52°
2026-04-23 15:43 38.19066 -137.18273 37399 ft 468 kts 52°
2026-04-23 15:43 38.22890 -137.11580 37402 ft 468 kts 52°
2026-04-23 15:44 38.26711 -137.04879 37401 ft 468 kts 52°
2026-04-23 15:44 38.30531 -136.98169 37404 ft 468 kts 52°
2026-04-23 15:45 38.34344 -136.91452 37403 ft 468 kts 52°
2026-04-23 15:45 38.38156 -136.84726 37403 ft 468 kts 52°
2026-04-23 15:46 38.41961 -136.77998 37405 ft 468 kts 52°
2026-04-23 15:46 38.45767 -136.71256 37406 ft 468 kts 52°
2026-04-23 15:47 38.49568 -136.64507 37405 ft 468 kts 52°
2026-04-23 15:47 38.53369 -136.57744 37410 ft 468 kts 52°
2026-04-23 15:48 38.57160 -136.50985 37408 ft 468 kts 53°
2026-04-23 15:48 38.60925 -136.44257 37412 ft 468 kts 53°
2026-04-23 15:49 38.64713 -136.37477 37414 ft 468 kts 53°
2026-04-23 15:49 38.68493 -136.30694 37409 ft 468 kts 53°
2026-04-23 15:50 38.72273 -136.23899 37416 ft 468 kts 53°
2026-04-23 15:50 38.76047 -136.17100 37413 ft 468 kts 53°
2026-04-23 15:51 38.79821 -136.10286 37415 ft 469 kts 53°
2026-04-23 15:51 38.83595 -136.03459 37414 ft 469 kts 53°
2026-04-23 15:52 38.87357 -135.96638 37414 ft 469 kts 53°
2026-04-23 15:52 38.90511 -135.90909 37423 ft 469 kts 53°
2026-04-23 15:53 38.94271 -135.84065 37424 ft 469 kts 53°
2026-04-23 15:53 38.98026 -135.77216 37426 ft 469 kts 53°
2026-04-23 15:54 39.01780 -135.70357 37418 ft 469 kts 53°
2026-04-23 15:54 39.05529 -135.63493 37421 ft 469 kts 53°
2026-04-23 15:55 39.09276 -135.56620 37422 ft 469 kts 53°
2026-04-23 15:55 39.13019 -135.49740 37426 ft 469 kts 54°
2026-04-23 15:56 39.16756 -135.42854 37430 ft 469 kts 54°
2026-04-23 15:56 39.20492 -135.35958 37421 ft 469 kts 54°
2026-04-23 15:57 39.24226 -135.29050 37423 ft 469 kts 54°
2026-04-23 15:57 39.27952 -135.22144 37427 ft 469 kts 54°
2026-04-23 15:58 39.31678 -135.15222 37425 ft 469 kts 54°
2026-04-23 15:58 39.35401 -135.08291 37423 ft 470 kts 54°
2026-04-23 15:59 39.39123 -135.01346 37425 ft 470 kts 54°
2026-04-23 15:59 39.42821 -134.94386 37423 ft 470 kts 54°
2026-04-23 16:00 39.46530 -134.87423 37424 ft 470 kts 54°
2026-04-23 16:00 39.50239 -134.80459 37427 ft 470 kts 54°
2026-04-23 16:01 39.53946 -134.73484 37429 ft 470 kts 54°
2026-04-23 16:01 39.57651 -134.66500 37430 ft 470 kts 54°
2026-04-23 16:02 39.61353 -134.59503 37430 ft 470 kts 54°
2026-04-23 16:02 39.65049 -134.52505 37431 ft 470 kts 54°
2026-04-23 16:03 39.68740 -134.45499 37431 ft 470 kts 54°
2026-04-23 16:03 39.72429 -134.38482 37432 ft 470 kts 54°
2026-04-23 16:04 39.76111 -134.31461 37431 ft 470 kts 54°
2026-04-23 16:04 39.79790 -134.24432 37429 ft 470 kts 54°
2026-04-23 16:05 39.82844 -134.18585 37432 ft 471 kts 54°
2026-04-23 16:05 39.87142 -134.10338 37431 ft 471 kts 55°
2026-04-23 16:06 39.90811 -134.03280 37425 ft 471 kts 55°
2026-04-23 16:06 39.94480 -133.96206 37429 ft 471 kts 55°
2026-04-23 16:07 39.98151 -133.89114 37432 ft 472 kts 55°
2026-04-23 16:07 40.01817 -133.82014 37431 ft 472 kts 55°
2026-04-23 16:08 40.05484 -133.74897 37430 ft 472 kts 55°
2026-04-23 16:08 40.09148 -133.67769 37431 ft 473 kts 55°
2026-04-23 16:09 40.12808 -133.60634 37434 ft 473 kts 55°
2026-04-23 16:09 40.16465 -133.53486 37431 ft 473 kts 55°
2026-04-23 16:10 40.20117 -133.46334 37434 ft 473 kts 55°
2026-04-23 16:10 40.23769 -133.39164 37431 ft 473 kts 55°
2026-04-23 16:11 40.27415 -133.31990 37429 ft 473 kts 55°
2026-04-23 16:11 40.31061 -133.24800 37429 ft 474 kts 55°
2026-04-23 16:12 40.34703 -133.17602 37430 ft 474 kts 55°
2026-04-23 16:12 40.38342 -133.10391 37431 ft 474 kts 55°
2026-04-23 16:13 40.41978 -133.03170 37433 ft 474 kts 55°
2026-04-23 16:13 40.47423 -132.92326 37431 ft 474 kts 55°
2026-04-23 16:14 40.51051 -132.85078 37431 ft 475 kts 55°
2026-04-23 16:14 40.54676 -132.77822 37432 ft 475 kts 55°
2026-04-23 16:15 40.58301 -132.70549 37431 ft 475 kts 55°
2026-04-23 16:15 40.61916 -132.63276 37434 ft 475 kts 55°
2026-04-23 16:16 40.65531 -132.55989 37431 ft 475 kts 55°
2026-04-23 16:16 40.69140 -132.48694 37433 ft 475 kts 55°
2026-04-23 16:17 40.72748 -132.41385 37431 ft 475 kts 55°
2026-04-23 16:17 40.76350 -132.34072 37431 ft 475 kts 55°
2026-04-23 16:18 40.79948 -132.26749 37430 ft 476 kts 55°
2026-04-23 16:18 40.83542 -132.19417 37431 ft 476 kts 55°
2026-04-23 16:19 40.87132 -132.12075 37430 ft 476 kts 55°
2026-04-23 16:19 40.90695 -132.04771 37431 ft 476 kts 55°
2026-04-23 16:20 40.94280 -131.97405 37429 ft 476 kts 55°
2026-04-23 16:20 40.97856 -131.90040 37429 ft 476 kts 55°
2026-04-23 16:21 41.01428 -131.82664 37425 ft 476 kts 55°
2026-04-23 16:21 41.04998 -131.75276 37427 ft 476 kts 55°
2026-04-23 16:22 41.08562 -131.67883 37425 ft 476 kts 55°
2026-04-23 16:22 41.12120 -131.60484 37426 ft 476 kts 55°
2026-04-23 16:23 41.15672 -131.53080 37424 ft 476 kts 55°
2026-04-23 16:23 41.19221 -131.45663 37426 ft 476 kts 55°
2026-04-23 16:24 41.22763 -131.38243 37421 ft 476 kts 55°
2026-04-23 16:24 41.26303 -131.30810 37426 ft 476 kts 55°
2026-04-23 16:25 41.29834 -131.23377 37423 ft 476 kts 55°
2026-04-23 16:25 41.33365 -131.15926 37417 ft 476 kts 55°
2026-04-23 16:26 41.36887 -131.08476 37416 ft 476 kts 55°
2026-04-23 16:26 41.40402 -131.01022 37421 ft 476 kts 55°
2026-04-23 16:27 41.43917 -130.93551 37418 ft 476 kts 55°
2026-04-23 16:27 41.47425 -130.86076 37416 ft 475 kts 55°
2026-04-23 16:28 41.50952 -130.78541 37414 ft 475 kts 55°
2026-04-23 16:28 41.54427 -130.71100 37416 ft 475 kts 55°
2026-04-23 16:29 41.57351 -130.64823 37414 ft 475 kts 55°
2026-04-23 16:29 41.60840 -130.57317 37374 ft 476 kts 55°
2026-04-23 16:30 41.64340 -130.49771 37407 ft 478 kts 55°
2026-04-23 16:30 41.67835 -130.42216 37410 ft 478 kts 55°
2026-04-23 16:31 41.71324 -130.34654 37408 ft 478 kts 55°
2026-04-23 16:31 41.74808 -130.27083 37409 ft 478 kts 56°
2026-04-23 16:32 41.78288 -130.19503 37410 ft 478 kts 56°
2026-04-23 16:32 41.81764 -130.11913 37406 ft 478 kts 56°
2026-04-23 16:33 41.85233 -130.04318 37402 ft 478 kts 56°
2026-04-23 16:33 41.88697 -129.96714 37398 ft 478 kts 56°
2026-04-23 16:34 41.92157 -129.89099 37394 ft 478 kts 56°
2026-04-23 16:34 41.95614 -129.81475 37389 ft 478 kts 56°
2026-04-23 16:35 41.99062 -129.73847 37393 ft 478 kts 56°
2026-04-23 16:35 42.02508 -129.66208 37390 ft 478 kts 56°
2026-04-23 16:36 42.05947 -129.58562 37397 ft 477 kts 56°
2026-04-23 16:36 42.09383 -129.50906 37395 ft 477 kts 56°
2026-04-23 16:37 42.12811 -129.43245 37390 ft 477 kts 56°
2026-04-23 16:37 42.16231 -129.35584 37397 ft 477 kts 56°
2026-04-23 16:38 42.19647 -129.27912 37392 ft 477 kts 56°
2026-04-23 16:38 42.23055 -129.20240 37388 ft 477 kts 56°
2026-04-23 16:39 42.26459 -129.12554 37387 ft 476 kts 56°
2026-04-23 16:39 42.29852 -129.04875 37386 ft 476 kts 56°
2026-04-23 16:40 42.33242 -128.97181 37384 ft 476 kts 56°
2026-04-23 16:40 42.36621 -128.89495 37381 ft 476 kts 57°
2026-04-23 16:41 42.39993 -128.81802 37379 ft 475 kts 57°
2026-04-23 16:41 42.43357 -128.74108 37383 ft 475 kts 57°
2026-04-23 16:42 42.46713 -128.66414 37380 ft 474 kts 57°
2026-04-23 16:42 42.50082 -128.58669 37379 ft 474 kts 57°
2026-04-23 16:43 42.53421 -128.50973 37373 ft 473 kts 57°
2026-04-23 16:43 42.56749 -128.43281 37377 ft 473 kts 57°
2026-04-23 16:44 42.60050 -128.35632 37369 ft 472 kts 57°
2026-04-23 16:44 42.63364 -128.27934 37370 ft 472 kts 57°
2026-04-23 16:45 42.66669 -128.20237 37370 ft 471 kts 57°
2026-04-23 16:45 42.69962 -128.12545 37371 ft 471 kts 57°
2026-04-23 16:46 42.73254 -128.04837 37371 ft 471 kts 57°
2026-04-23 16:46 42.76535 -127.97136 37367 ft 470 kts 58°
2026-04-23 16:47 42.79807 -127.89435 37368 ft 470 kts 58°
2026-04-23 16:47 42.83072 -127.81728 37361 ft 470 kts 58°
2026-04-23 16:48 42.86329 -127.74021 37361 ft 469 kts 58°
2026-04-23 16:48 42.89601 -127.66258 37359 ft 469 kts 58°
2026-04-23 16:49 42.92840 -127.58553 37361 ft 468 kts 58°
2026-04-23 16:49 42.96051 -127.50897 37355 ft 467 kts 58°
2026-04-23 16:50 42.99270 -127.43206 37355 ft 466 kts 58°
2026-04-23 16:50 43.02483 -127.35511 37350 ft 466 kts 58°
2026-04-23 16:51 43.05686 -127.27817 37347 ft 465 kts 58°
2026-04-23 16:51 43.08902 -127.20071 37343 ft 465 kts 58°
2026-04-23 16:52 43.12070 -127.12423 37345 ft 465 kts 58°
2026-04-23 16:52 43.15255 -127.04715 37346 ft 464 kts 59°
2026-04-23 16:53 43.18428 -126.97014 37348 ft 463 kts 59°
2026-04-23 16:53 43.21588 -126.89326 37342 ft 463 kts 59°
2026-04-23 16:54 43.24741 -126.81635 37343 ft 462 kts 59°
2026-04-23 16:54 43.27885 -126.73948 37341 ft 462 kts 59°
2026-04-23 16:55 43.31158 -126.66392 37340 ft 459 kts 54°
2026-04-23 16:55 43.34768 -126.59155 37332 ft 459 kts 53°
2026-04-23 16:56 43.38404 -126.51952 37335 ft 458 kts 53°
2026-04-23 16:56 43.42033 -126.44758 37335 ft 457 kts 53°
2026-04-23 16:57 43.45649 -126.37574 37334 ft 456 kts 53°
2026-04-23 16:57 43.49256 -126.30388 37329 ft 456 kts 53°
2026-04-23 16:58 43.52851 -126.23210 37324 ft 455 kts 53°
2026-04-23 16:58 43.56438 -126.16031 37325 ft 454 kts 53°
2026-04-23 16:59 43.60014 -126.08857 37322 ft 454 kts 53°
2026-04-23 16:59 43.63582 -126.01680 37320 ft 453 kts 54°
2026-04-23 17:00 43.67140 -125.94506 37325 ft 452 kts 54°
2026-04-23 17:00 43.70688 -125.87335 37321 ft 452 kts 54°
2026-04-23 17:01 43.74229 -125.80160 37322 ft 451 kts 54°
2026-04-23 17:01 43.77759 -125.72990 37315 ft 451 kts 54°
2026-04-23 17:02 43.81281 -125.65820 37315 ft 450 kts 54°
2026-04-23 17:02 43.84793 -125.58651 37310 ft 449 kts 54°
2026-04-23 17:03 43.88297 -125.51483 37315 ft 449 kts 54°
2026-04-23 17:03 43.91792 -125.44312 37319 ft 449 kts 54°
2026-04-23 17:04 43.95282 -125.37136 37311 ft 448 kts 54°
2026-04-23 17:04 43.98763 -125.29961 37308 ft 448 kts 54°
2026-04-23 17:05 44.02237 -125.22782 37309 ft 447 kts 54°
2026-04-23 17:05 44.05728 -125.15552 37310 ft 447 kts 54°
2026-04-23 17:06 44.09162 -125.08422 37307 ft 446 kts 54°
2026-04-23 17:06 44.12052 -125.02406 37309 ft 446 kts 54°
2026-04-23 17:07 44.15495 -124.95224 37305 ft 445 kts 54°
2026-04-23 17:07 44.18931 -124.88038 37307 ft 445 kts 55°
2026-04-23 17:08 44.22355 -124.80859 37311 ft 445 kts 55°
2026-04-23 17:08 44.25773 -124.73676 37303 ft 444 kts 55°
2026-04-23 17:09 44.29182 -124.66496 37298 ft 444 kts 55°
2026-04-23 17:09 44.32585 -124.59309 37302 ft 443 kts 55°
2026-04-23 17:10 44.35980 -124.52120 37305 ft 442 kts 55°
2026-04-23 17:10 44.39364 -124.44937 37308 ft 442 kts 55°
2026-04-23 17:11 44.42719 -124.37799 37315 ft 442 kts 55°
2026-04-23 17:11 44.46088 -124.30614 37322 ft 441 kts 55°
2026-04-23 17:12 44.49453 -124.23424 37320 ft 441 kts 55°
2026-04-23 17:12 44.52809 -124.16234 37320 ft 441 kts 54°
2026-04-23 17:13 44.56158 -124.09045 37319 ft 440 kts 54°
2026-04-23 17:13 44.58041 -124.05703 37307 ft 435 kts 40°
2026-04-23 17:13 44.60336 -124.02949 37318 ft 435 kts 39°
2026-04-23 17:14 44.64952 -123.97458 37326 ft 435 kts 38°
2026-04-23 17:14 44.69596 -123.92020 37319 ft 434 kts 38°
2026-04-23 17:15 44.74235 -123.86598 37316 ft 433 kts 38°
2026-04-23 17:15 44.78864 -123.81176 37314 ft 433 kts 38°
2026-04-23 17:16 44.83486 -123.75751 37310 ft 433 kts 38°
2026-04-23 17:16 44.88103 -123.70319 37299 ft 432 kts 38°
2026-04-23 17:17 44.92746 -123.64847 37299 ft 432 kts 38°
2026-04-23 17:17 44.97350 -123.59406 37299 ft 432 kts 38°
2026-04-23 17:18 45.04252 -123.51231 37294 ft 432 kts 38°
2026-04-23 17:19 45.08852 -123.45767 37293 ft 432 kts 38°
2026-04-23 17:19 45.13447 -123.40297 37293 ft 432 kts 38°
2026-04-23 17:20 45.18043 -123.34813 37292 ft 432 kts 38°
2026-04-23 17:21 45.27236 -123.23810 37297 ft 433 kts 38°
2026-04-23 17:21 45.34132 -123.15524 37292 ft 433 kts 38°
2026-04-23 17:22 45.41025 -123.07214 37286 ft 433 kts 37°
2026-04-23 17:23 45.47914 -122.98882 37288 ft 433 kts 37°
2026-04-23 17:24 45.54798 -122.90527 37288 ft 433 kts 37°
2026-04-23 17:24 45.61672 -122.82158 37290 ft 433 kts 37°
2026-04-23 17:25 45.68537 -122.73771 37310 ft 432 kts 37°
2026-04-23 17:26 45.77666 -122.62575 37309 ft 432 kts 37°
2026-04-23 17:27 45.84501 -122.54159 37293 ft 431 kts 37°
2026-04-23 17:27 45.89050 -122.48542 37292 ft 431 kts 37°
2026-04-23 17:28 45.93594 -122.42920 37283 ft 431 kts 37°
2026-04-23 17:28 45.98133 -122.37289 37286 ft 431 kts 37°
2026-04-23 17:29 46.02663 -122.31658 37286 ft 430 kts 37°
2026-04-23 17:30 46.08682 -122.24157 37286 ft 430 kts 37°
2026-04-23 17:30 46.16209 -122.14743 37290 ft 429 kts 37°
2026-04-23 17:31 46.20704 -122.09104 37289 ft 428 kts 37°
2026-04-23 17:31 46.25187 -122.03467 37278 ft 427 kts 37°
2026-04-23 17:32 46.29666 -121.97824 37277 ft 427 kts 36°
2026-04-23 17:32 46.34137 -121.92179 37274 ft 426 kts 36°
2026-04-23 17:33 46.38606 -121.86522 37278 ft 426 kts 37°
2026-04-23 17:33 46.43069 -121.80861 37272 ft 426 kts 36°
2026-04-23 17:34 46.47522 -121.75199 37261 ft 425 kts 36°
2026-04-23 17:35 46.54194 -121.66692 37263 ft 425 kts 36°
2026-04-23 17:35 46.60844 -121.58185 37251 ft 424 kts 36°
2026-04-23 17:36 46.65271 -121.52504 37239 ft 424 kts 36°
2026-04-23 17:36 46.69695 -121.46815 37237 ft 424 kts 36°
2026-04-23 17:37 46.74120 -121.41113 37227 ft 424 kts 36°
2026-04-23 17:38 46.80729 -121.32569 37204 ft 422 kts 36°
2026-04-23 17:38 46.85126 -121.26871 37220 ft 423 kts 36°
2026-04-23 17:39 46.89527 -121.21153 37198 ft 424 kts 36°
2026-04-23 17:39 46.93930 -121.15419 37203 ft 423 kts 36°
2026-04-23 17:40 46.98327 -121.09681 37199 ft 423 kts 36°
2026-04-23 17:40 47.02718 -121.03936 37200 ft 423 kts 36°
2026-04-23 17:41 47.07109 -120.98178 37181 ft 423 kts 36°
2026-04-23 17:41 47.13690 -120.89524 37165 ft 423 kts 36°
2026-04-23 17:42 47.20272 -120.80839 37162 ft 424 kts 36°
2026-04-23 17:43 47.24662 -120.75030 37153 ft 425 kts 36°
2026-04-23 17:43 47.29055 -120.69203 37152 ft 425 kts 36°
2026-04-23 17:44 47.32705 -120.64351 37156 ft 425 kts 36°
2026-04-23 17:44 47.40016 -120.54604 37152 ft 426 kts 36°
2026-04-23 17:45 47.45890 -120.46744 37146 ft 426 kts 36°
2026-04-23 17:46 47.52466 -120.37918 37141 ft 425 kts 36°
2026-04-23 17:46 47.56833 -120.32038 37145 ft 425 kts 36°
2026-04-23 17:47 47.61201 -120.26145 37136 ft 424 kts 36°
2026-04-23 17:48 47.67740 -120.17294 37139 ft 424 kts 36°
2026-04-23 17:48 47.72088 -120.11390 37141 ft 423 kts 36°
2026-04-23 17:49 47.76424 -120.05490 37147 ft 422 kts 36°
2026-04-23 17:49 47.80748 -119.99595 37133 ft 421 kts 36°
2026-04-23 17:50 47.85063 -119.93694 37144 ft 422 kts 36°
2026-04-23 17:50 47.91537 -119.84817 37132 ft 422 kts 36°
2026-04-23 17:51 47.95850 -119.78885 37132 ft 422 kts 36°
2026-04-23 17:52 48.02323 -119.69957 37125 ft 422 kts 36°
2026-04-23 17:52 48.08790 -119.61005 37115 ft 422 kts 36°
2026-04-23 17:53 48.15259 -119.52017 37114 ft 423 kts 36°
2026-04-23 17:54 48.19576 -119.46001 37118 ft 424 kts 36°
2026-04-23 17:54 48.26059 -119.36940 37116 ft 425 kts 36°
2026-04-23 17:55 48.32540 -119.27847 37122 ft 426 kts 37°
2026-04-23 17:56 48.36871 -119.21755 37116 ft 427 kts 37°
2026-04-23 17:56 48.43382 -119.12564 37112 ft 429 kts 37°
2026-04-23 17:57 48.47731 -119.06407 37113 ft 430 kts 37°
2026-04-23 17:58 48.54268 -118.97123 37107 ft 431 kts 37°
2026-04-23 17:58 48.58629 -118.90912 37104 ft 432 kts 37°
2026-04-23 17:59 48.63000 -118.84669 37093 ft 433 kts 37°
2026-04-23 17:59 48.67379 -118.78400 37083 ft 434 kts 37°
2026-04-23 18:00 48.71772 -118.72095 37086 ft 436 kts 37°
2026-04-23 18:00 48.76172 -118.65762 37090 ft 437 kts 37°
2026-04-23 18:01 48.80585 -118.59397 37090 ft 438 kts 38°
2026-04-23 18:01 48.85004 -118.53005 37083 ft 439 kts 38°
2026-04-23 18:02 48.89427 -118.46591 37075 ft 440 kts 38°
2026-04-23 18:02 48.93850 -118.40161 37082 ft 441 kts 38°
2026-04-23 18:03 48.98284 -118.33699 37083 ft 442 kts 38°
2026-04-23 18:03 49.02719 -118.27217 37074 ft 442 kts 38°
2026-04-23 18:04 49.07159 -118.20715 37068 ft 443 kts 39°
2026-04-23 18:04 49.11606 -118.14188 37064 ft 444 kts 39°
2026-04-23 18:05 49.16055 -118.07640 37065 ft 445 kts 39°
2026-04-23 18:05 49.20511 -118.01064 37058 ft 446 kts 39°
2026-04-23 18:06 49.24970 -117.94468 37055 ft 446 kts 39°
2026-04-23 18:06 49.29431 -117.87852 37051 ft 447 kts 39°
2026-04-23 18:07 49.33893 -117.81217 37051 ft 448 kts 39°
2026-04-23 18:07 49.38362 -117.74556 37069 ft 449 kts 39°
2026-04-23 18:08 49.42078 -117.69003 37055 ft 449 kts 40°
2026-04-23 18:08 49.47307 -117.61167 37059 ft 449 kts 40°
2026-04-23 18:09 49.51758 -117.54384 37060 ft 452 kts 41°
2026-04-23 18:09 49.56147 -117.47438 37072 ft 453 kts 41°
2026-04-23 18:10 49.60555 -117.40503 37071 ft 453 kts 41°
2026-04-23 18:10 49.64963 -117.33555 37069 ft 454 kts 41°
2026-04-23 18:11 49.69374 -117.26584 37068 ft 454 kts 41°
2026-04-23 18:11 49.73785 -117.19593 37076 ft 455 kts 41°
2026-04-23 18:12 49.78202 -117.12574 37079 ft 455 kts 41°
2026-04-23 18:12 49.82625 -117.05524 37091 ft 456 kts 41°
2026-04-23 18:13 49.87038 -116.98471 37103 ft 456 kts 41°
2026-04-23 18:13 49.91454 -116.91393 37110 ft 456 kts 42°
2026-04-23 18:14 49.95864 -116.84306 37123 ft 457 kts 42°
2026-04-23 18:14 50.00276 -116.77196 37121 ft 457 kts 42°
2026-04-23 18:15 50.04687 -116.70067 37125 ft 458 kts 42°
2026-04-23 18:15 50.09097 -116.62919 37108 ft 458 kts 42°
2026-04-23 18:16 50.13508 -116.55749 36687 ft 458 kts 42°
2026-04-23 18:16 50.15719 -116.52148 35867 ft 462 kts 42°
2026-04-23 18:16 50.17943 -116.48520 35204 ft 462 kts 42°
2026-04-23 18:17 50.22352 -116.41313 33983 ft 460 kts 42°
2026-04-23 18:17 50.24561 -116.37693 33269 ft 457 kts 42°
2026-04-23 18:17 50.26745 -116.34109 32723 ft 453 kts 42°
2026-04-23 18:17 50.28908 -116.30558 32157 ft 449 kts 41°
2026-04-23 18:18 50.31048 -116.27037 31611 ft 444 kts 41°
2026-04-23 18:18 50.33165 -116.23553 31087 ft 439 kts 41°
2026-04-23 18:18 50.35259 -116.20100 30554 ft 435 kts 41°
2026-04-23 18:18 50.37332 -116.16670 30000 ft 432 kts 43°
2026-04-23 18:19 50.39077 -116.12789 29195 ft 443 kts 59°
2026-04-23 18:19 50.40171 -116.08267 28735 ft 440 kts 65°
2026-04-23 18:19 50.41187 -116.03800 28269 ft 433 kts 65°
2026-04-23 18:19 50.42185 -115.99365 27719 ft 429 kts 65°
2026-04-23 18:20 50.43161 -115.94970 27199 ft 425 kts 66°
2026-04-23 18:20 50.44122 -115.90617 26684 ft 421 kts 66°
2026-04-23 18:20 50.45073 -115.86295 26175 ft 417 kts 66°
2026-04-23 18:20 50.46015 -115.82007 25672 ft 414 kts 66°
2026-04-23 18:21 50.46947 -115.77754 25170 ft 410 kts 66°
2026-04-23 18:21 50.47870 -115.73533 24679 ft 408 kts 66°
2026-04-23 18:21 50.48786 -115.69335 24180 ft 405 kts 67°
2026-04-23 18:21 50.49696 -115.65158 23691 ft 403 kts 67°
2026-04-23 18:22 50.50598 -115.61003 23114 ft 401 kts 67°
2026-04-23 18:22 50.51493 -115.56878 22593 ft 397 kts 67°
2026-04-23 18:22 50.52080 -115.54167 22278 ft 394 kts 68°
2026-04-23 18:22 50.52959 -115.50106 21803 ft 390 kts 68°
2026-04-23 18:23 50.53826 -115.46088 21331 ft 386 kts 68°
2026-04-23 18:23 50.55532 -115.38141 20332 ft 381 kts 68°
2026-04-23 18:24 50.57209 -115.30305 19382 ft 375 kts 68°
2026-04-23 18:24 50.58034 -115.26438 18929 ft 371 kts 68°
2026-04-23 18:24 50.58854 -115.22588 18431 ft 370 kts 68°
2026-04-23 18:25 50.60469 -115.14985 17508 ft 363 kts 67°
2026-04-23 18:25 50.61264 -115.11229 17081 ft 359 kts 67°
2026-04-23 18:25 50.62049 -115.07515 16653 ft 356 kts 67°
2026-04-23 18:25 50.62832 -115.03821 16090 ft 356 kts 67°
2026-04-23 18:26 50.63611 -115.00139 15712 ft 352 kts 67°
2026-04-23 18:26 50.64378 -114.96510 15302 ft 347 kts 67°
2026-04-23 18:26 50.65134 -114.92922 14935 ft 342 kts 67°
2026-04-23 18:26 50.65881 -114.89379 14495 ft 339 kts 66°
2026-04-23 18:27 50.66614 -114.85881 14104 ft 332 kts 66°
2026-04-23 18:27 50.67324 -114.82472 13937 ft 323 kts 66°
2026-04-23 18:27 50.68014 -114.79156 13734 ft 312 kts 66°
2026-04-23 18:27 50.68664 -114.76014 13600 ft 291 kts 66°
2026-04-23 18:28 50.69272 -114.73077 13447 ft 272 kts 65°
2026-04-23 18:28 50.69841 -114.70334 13307 ft 256 kts 65°
2026-04-23 18:28 50.70402 -114.67653 13138 ft 264 kts 64°
2026-04-23 18:28 50.71290 -114.65175 12817 ft 256 kts 41°
2026-04-23 18:29 50.72514 -114.63128 12624 ft 259 kts 40°
2026-04-23 18:29 50.73751 -114.61050 12445 ft 260 kts 40°
2026-04-23 18:29 50.74993 -114.58984 12242 ft 259 kts 39°
2026-04-23 18:29 50.76233 -114.56936 12085 ft 258 kts 39°
2026-04-23 18:30 50.77478 -114.54890 11765 ft 258 kts 39°
2026-04-23 18:30 50.78718 -114.52855 11490 ft 256 kts 39°
2026-04-23 18:30 50.79950 -114.50836 11237 ft 255 kts 39°
2026-04-23 18:30 50.81200 -114.48863 10974 ft 253 kts 37°
2026-04-23 18:31 50.82466 -114.46950 10706 ft 252 kts 37°
2026-04-23 18:31 50.83709 -114.45062 10467 ft 250 kts 37°
2026-04-23 18:31 50.84977 -114.43130 10213 ft 249 kts 37°
2026-04-23 18:31 50.86222 -114.41231 9970 ft 248 kts 37°
2026-04-23 18:32 50.87460 -114.39340 9699 ft 247 kts 37°
2026-04-23 18:32 50.88692 -114.37457 9438 ft 245 kts 37°
2026-04-23 18:32 50.89907 -114.35596 9164 ft 240 kts 37°
2026-04-23 18:32 50.91035 -114.33695 8982 ft 238 kts 50°
2026-04-23 18:33 50.91591 -114.31218 8820 ft 252 kts 77°
2026-04-23 18:33 50.91580 -114.28389 8730 ft 259 kts 84°
2026-04-23 18:33 50.91515 -114.25499 8583 ft 257 kts 85°
2026-04-23 18:33 50.91447 -114.22714 8443 ft 249 kts 84°
2026-04-23 18:34 50.91176 -114.19987 8282 ft 257 kts 108°
2026-04-23 18:34 50.90101 -114.17707 8097 ft 262 kts 141°
2026-04-23 18:34 50.88520 -114.16455 8067 ft 244 kts 159°
2026-04-23 18:34 50.87170 -114.15127 7966 ft 217 kts 130°
2026-04-23 18:35 50.86381 -114.13250 7778 ft 203 kts 103°
2026-04-23 18:35 50.86140 -114.11138 7623 ft 190 kts 77°
2026-04-23 18:35 50.86413 -114.09179 7469 ft 177 kts 54°
2026-04-23 18:35 50.87081 -114.07615 7345 ft 164 kts 34°
2026-04-23 18:36 50.87967 -114.06560 7239 ft 156 kts 20°
2026-04-23 18:36 50.88909 -114.05762 7095 ft 155 kts 18°
2026-04-23 18:36 50.89807 -114.04778 6950 ft 163 kts 36°
2026-04-23 18:36 50.90563 -114.03390 6815 ft 166 kts 39°
2026-04-23 18:37 50.91293 -114.01971 6674 ft 166 kts 40°
2026-04-23 18:37 50.92009 -114.00544 6562 ft 165 kts 40°
2026-04-23 18:37 50.92790 -113.99468 6451 ft 136 kts
2026-04-23 18:37 50.93719 -113.99258 6502 ft 139 kts
2026-04-23 18:38 50.94701 -113.99137 6517 ft 143 kts 358°
2026-04-23 18:38 50.95701 -113.99087 6478 ft 144 kts 356°
2026-04-23 18:38 50.96701 -113.99074 6296 ft 144 kts 355°
2026-04-23 18:38 50.97694 -113.99067 6062 ft 139 kts 355°
2026-04-23 18:39 50.98596 -113.99065 5874 ft 122 kts 355°
2026-04-23 18:39 50.99446 -113.99063 5679 ft 124 kts 354°
2026-04-23 18:39 51.00311 -113.99064 5432 ft 124 kts 355°
2026-04-23 18:39 51.01174 -113.99060 5233 ft 124 kts 355°
2026-04-23 18:40 51.02038 -113.99058 4991 ft 124 kts 355°
2026-04-23 18:40 51.02897 -113.99055 4867 ft 123 kts 355°
2026-04-23 18:40 51.03756 -113.99055 4801 ft 124 kts 355°
2026-04-23 18:40 51.04617 -113.99053 4799 ft 123 kts 356°
2026-04-23 18:41 51.05465 -113.99050 4769 ft 124 kts 355°
2026-04-23 18:41 51.06324 -113.99047 4765 ft 123 kts 355°
2026-04-23 18:41 51.07178 -113.99047 4759 ft 123 kts 354°
2026-04-23 18:41 51.08032 -113.99046 4701 ft 124 kts 355°
2026-04-23 18:42 51.08911 -113.99028 4105 ft 126 kts 356°
2026-04-23 18:42 51.09768 -113.99009 3807 ft 122 kts 355°
2026-04-23 18:42 51.10628 -113.99031 3671 ft 126 kts 355°
2026-04-23 18:42 51.11632 -113.99047 3587 ft 163 kts 356°
2026-04-23 18:43 51.12737 -113.99053 3572 ft 146 kts 356°
2026-04-23 18:43 51.13553 -113.99064 3578 ft 76 kts
2026-04-23 18:43 51.13855 -113.99046 3576 ft 20 kts 359°
2026-04-23 18:43 51.13990 -113.99040 3589 ft 18 kts
2026-04-23 18:44 51.14105 -113.99040 3597 ft 15 kts 359°
2026-04-23 18:44 51.14220 -113.99037 3599 ft 20 kts
2026-04-23 18:44 51.14387 -113.99036 3605 ft 28 kts
2026-04-23 18:44 51.14599 -113.99037 3611 ft 31 kts 359°
2026-04-23 18:45 51.14763 -113.99102 3614 ft 17 kts 290°
2026-04-23 18:45 51.14744 -113.99276 3614 ft 17 kts 227°
2026-04-23 18:45 51.14622 -113.99302 3610 ft 20 kts 179°
2026-04-23 18:45 51.14472 -113.99303 3606 ft 23 kts 180°
2026-04-23 18:46 51.14298 -113.99304 3602 ft 27 kts 180°
2026-04-23 18:46 51.14102 -113.99302 3596 ft 30 kts 180°
2026-04-23 18:46 51.13885 -113.99302 3590 ft 33 kts 180°
2026-04-23 18:46 51.13665 -113.99303 3576 ft 27 kts 180°
2026-04-23 18:47 51.13472 -113.99303 3577 ft 20 kts 180°
2026-04-23 18:47 51.13321 -113.99302 3569 ft 24 kts 179°
2026-04-23 18:47 51.13162 -113.99320 3561 ft 13 kts 214°